Location: Seven Kings
(51.5667°N, 0.1000°E)
Time: 12:22:22
(UTC+00:00)

SL-4 R/B - Pass Details

Date: 29 October 2020
Orbit: 427 x 665 km, 51.6° (Epoch: 24 November)

Event Time Altitude Azimuth Distance (km) Brightness Sun altitude
Rises 19:06:49 0° 284° (WNW) 2,459 6.8 -23.7°
Reaches altitude 10° 19:08:57 10° 277° (W) 1,612 5.5 -24.0°
Enters shadow 19:11:53 40° 230° (SW) 723 2.8 -24.5°
